User: anonymous   Login
Location: Sungai Bunut
(2.6333°N, 113.7333°E)
Time: 16:39:34
(UTC+00:00)
Language:

Cosmos 372 Rocket - Orbit

View from above orbital plane
View from above orbital plane
View from above satellite
View from above satellite

Ground track
Ground track

The orbit data is extracted from the following two-line orbital elements,

1  4589U 70086B   22023.22142170  .00000079  00000-0  32458-4 0  9997
2  4589  74.0600  88.5859 0021913 241.8342 118.0600 14.41686536689528
Epoch (UTC): 23 January 2022 05:18:50
Eccentricity: 0.0021913
inclination: 74.0600°
perigee height: 737 km
apogee height: 768 km
right ascension of ascending node: 88.5859°
argument of perigee: 241.8342°
revolutions per day: 14.41686536
mean anomaly at epoch: 118.0600°
orbit number at epoch: 68952

The dashed part of the orbit path shows where the satellite is in the earth's shadow,  

DLR